Starlink 2381

operational
NORAD ID: 47800 Int'l Des: 2021-018 Owner: SPXS Country: US Constellation: starlink
LEOCIRCULARSTARLINK_TYPE

About Starlink 2381

Description loading...

Live Position

Loading 3D Globe...

Upcoming Passes

Altitude History

Altitude vs Time

uPlot chart will show altitude changes over time

Two-Line Element Set

1 47800U 21018P 26102.25943270 .00000216 00000-0 33390-4 0 9995
2 47800 53.0558 80.9185 0001409 82.7961 277.3188 15.06396307281934
Epoch: Apr 12, 2026 • Age: 13 hours

Current Status

Altitude 547.4 km
Velocity 7.59 km/s
Sub-Earth Point 20.48°N, 106.48°E
Launch Date Mar 11, 2021
Age 5 years
Type internet

Technical Details

Classification Payload
Mass 260.00 kg
Dry Mass 248.00 kg
Total Mass 260.00 kg
Length 0.20 m
Diameter 2.80 m
Span 9.00 m
Shape Box + pan
Manufacturer SPXS
Bus Type Starlink
Phase Status In Orbit
Owner/State SPXS/US

Large Constellations

Loading constellations...